Tracking 26217 objects as of 27-Sep-2022
HD Live streaming from Space Station
objects crossing your sky now

STARLINK-3397

Track STARLINK-3397 now!
10-day predictions
STARLINK-3397 is classified as:


NORAD ID: 51115
Int'l Code: 2022-005M
Perigee: 545.7 km
Apogee: 548.1 km
Inclination: 53.2 °
Period: 95.4 minutes
Semi major axis: 6917 km
RCS: Unknown
Launch date: January 19, 2022
Source: United States (US)
Launch site: AIR FORCE EASTERN TEST RANGE (AFETR)
aabbcc
Your satellite tracking list
Your tracking list is empty




NASA's NSSDC Master Catalog

Two Line Element Set (TLE):
1 51115U 22005M   22270.25816203  .00000936  00000-0  76942-4 0  9992
2 51115  53.2163 182.9189 0001758  55.6387 304.4771 15.08832847 38742
Source of the keplerian elements: AFSPC